DELTA 1 DEB, 7072

Orbit data source: Space-Track

DELTA 1 DEB, 7072 is space debris in SSO originally from a launch on Tue, 06 Nov 1973 UTC launched from the Air Force Western Test Range (AFWTR). Debris objects in space refer to the collection of defunct objects orbiting the Earth. Examples of debris include non-operational satellites, rocket bodies, and fragments generated from explosions, collisions, or faulty payload assembly.

Loading next visibility...
Identifier
7072, 1973-086BQ
Orbit
SSO
Country
Flag of USUS
Related business
Manufacturer
Unknown
Mission
Spacecraft
Bus & Motor
Unknown
Mass
Unknown
Launch date (UTC)
1973-11-06 (52 years ago)
Launch vehicle
Unknown
Launch site
Air Force Western Test Range (AFWTR)
Object type
Payload
Rocket body
Debris
Shape & HBR
Unknown shape, 0.2 m
Radar Cross Section
Medium (>0.1 m² and <1 m²)

Expand to show TLE details & history
Last TLE update: 9 hours ago

TLE from 9 hours ago
0 DELTA 1 DEB
1 07072U 73086BQ  25292.86350462 -.00000011  00000-0  23845-3 0  9992
2 07072 101.8037 251.3884 0010498 306.5246  81.1065 12.42667669355460
Epoch: 2025-10-19T20:43Z
TLE epoch observation values (Epoch: 2025-10-19T20:43:26.799Z)
Latitude
27.15207°
Longitude
-94.16985°
Altitude
1,497.059 km
Speed
7.119 km/s
True Right ascension
16h 21m 03s
True Declination
27° 01' 33"
Sunlit
Object was in daylight at epoch
Visualization orbit readout
Latitude
Unknown
Longitude
Unknown
Altitude
Unknown
Speed
Unknown
Apparent Right ascension
Unknown
Apparent Declination
Unknown
Sunlit
N/A
Visualization observer readout
Local Sidereal Time
00:59:19
Azimuth
Unknown
Elevation
Unknown
Doppler factor
Unknown
Orbital elements
Apogee altitude
1,501.137 km
Perigee altitude
1,484.612 km
Semi-major axis
7,871.011 km
Eccentricity
0.00105
Inclination
101.8037°
RAAN
251.3884°
Arg. of periapsis
306.5246°
True anomaly
81.22538°
Mean anomaly
81.1065°
Eccentric anomaly
81.16594°
Mean motion
3.10812 °/min
Orbital period
115.83 mins
BSTAR
0.00023845
Loading maneuver chart data...
Computing Atmospheric mass density...

Documentation

Showing up to 5 results
|